Weather History for Lawrenceville, IL

Change the Weather History Date:

Tuesday, August 19, 2014

  Actual Average Record
Temperature  
Mean Temperature 76 °F 76 °F  
Max Temperature 86 °F 88 °F 95 °F (2005)
Min Temperature 65 °F 65 °F 55 °F (2008)
Degree Days  
Heating Degree Days 0 0  
Month to date heating degree days 0 0  
Since 1 June heating degree days 0 7  
Since 1 July heating degree days 0 0  
Cooling Degree Days 11 11  
Month to date cooling degree days 153 227  
Year to date cooling degree days 891 1054  
Since 1 June cooling degree days 700 915  
Growing Degree Days 25 (Base 50)    
Moisture  
Dew Point 70 °F    
Average Humidity 85    
Maximum Humidity 100    
Minimum Humidity 70    
Precipitation  
Precipitation 0.00 in 0.13 in 1.34 in (1967)
Month to date precipitation 4.14 2.00  
Year to date precipitation 28.18 27.96  
Sea Level Pressure  
Sea Level Pressure 29.83 in    
Wind  
Wind Speed 6 mph (SSW)    
Max Wind Speed 14 mph    
Max Gust Speed 18 mph    
Visibility 3 miles    
Events Fog    
T = Trace of Precipitation, MM = Missing Value Source: NWS Daily Summary

Daily Weather History Graph

Daily Weather History Graph

Search for Another Location

Airport:

Trip Planner

Search our weather history database for the weather conditions in past years. The results will help you decide how hot, cold, wet, or windy it might be!

Date:

Astronomy

Aug. 19, 2014 Rise Set
Actual Time 6:07 AM CDT 7:39 PM CDT
Civil Twilight 5:39 AM CDT 8:07 PM CDT
Nautical Twilight 5:05 AM CDT 8:41 PM CDT
Astronomical Twilight 4:30 AM CDT 9:16 PM CDT
Moon 1:00 AM CDT (8/19) 3:34 PM CDT (8/19)
Length of Visible Light 14h 27m
Length of Day
13h 31m
Waning Crescent, 29% of the Moon is Illuminated
Aug 19
Waning Crescent
Aug 25
New
Sep 2
First Quarter
Sep 8
Full
Sep 15
Last Quarter

Hourly Weather History & Observations

Time (CDT) Temp. Heat Index Dew Point Humidity Pressure Visibility Wind Dir Wind Speed Gust Speed Precip Events Conditions
12:04 AM 69.1 °F - 68.0 °F 96% 29.84 in 0.2 mi SSW 4.6 mph - N/A Fog Fog
12:32 AM 68.0 °F - 66.9 °F 96% 29.84 in 2.0 mi SW 3.5 mph - N/A   Mostly Cloudy
12:35 AM 68.0 °F - 68.0 °F 100% 29.84 in 3.0 mi SSW 3.5 mph - N/A   Scattered Clouds
12:53 AM 69.1 °F - 68.0 °F 96% 29.83 in 2.5 mi Calm Calm - N/A   Clear
1:00 AM 69.1 °F - 68.0 °F 96% 29.84 in 3.0 mi Calm Calm - N/A   Clear
1:53 AM 69.1 °F - 68.0 °F 96% 29.82 in 0.8 mi Calm Calm - N/A   Mist
2:25 AM 68.0 °F - 66.9 °F 96% 29.82 in 1.5 mi Calm Calm - N/A   Mostly Cloudy
2:42 AM 66.9 °F - 66.0 °F 97% 29.82 in 0.2 mi Calm Calm - N/A Fog Fog
2:49 AM 66.2 °F - 66.2 °F 100% 29.83 in 0.2 mi Calm Calm - N/A Fog Fog
2:53 AM 66.9 °F - 66.0 °F 97% 29.81 in 0.5 mi Calm Calm - N/A Fog Fog
3:00 AM 66.9 °F - 66.0 °F 97% 29.82 in 0.2 mi Calm Calm - N/A Fog Fog
3:53 AM 66.9 °F - 66.0 °F 97% 29.81 in 0.5 mi SSW 3.5 mph - N/A Fog Fog
4:53 AM 66.9 °F - 66.0 °F 97% 29.83 in 0.2 mi Calm Calm - N/A Fog Fog
5:31 AM 66.0 °F - 64.9 °F 96% 29.84 in 2.0 mi Calm Calm - N/A   Mostly Cloudy
5:35 AM 66.0 °F - 64.9 °F 96% 29.84 in 0.8 mi South 3.5 mph - N/A   Mist
5:53 AM 66.0 °F - 64.9 °F 96% 29.83 in 0.2 mi South 4.6 mph - N/A Fog Fog
6:12 AM 66.0 °F - 64.9 °F 96% 29.84 in 1.2 mi SE 3.5 mph - N/A   Overcast
6:27 AM 66.0 °F - 64.9 °F 96% 29.85 in 0.8 mi SSE 3.5 mph - N/A   Mist
6:39 AM 66.0 °F - 64.9 °F 96% 29.86 in 1.0 mi Calm Calm - N/A   Mist
6:53 AM 66.9 °F - 66.0 °F 97% 29.85 in 0.8 mi SSE 3.5 mph - N/A   Mist
7:53 AM 70.0 °F - 70.0 °F 100% 29.85 in 0.2 mi South 3.5 mph - N/A Fog Fog
8:13 AM 71.1 °F - 70.0 °F 96% 29.86 in 1.5 mi South 3.5 mph - N/A   Overcast
8:25 AM 72.0 °F - 71.1 °F 97% 29.86 in 2.0 mi South 5.8 mph - N/A   Overcast
8:46 AM 73.0 °F - 71.1 °F 93% 29.86 in 3.0 mi South 4.6 mph - N/A   Mostly Cloudy
8:53 AM 73.0 °F - 72.0 °F 96% 29.86 in 4.0 mi SSW 4.6 mph - N/A   Scattered Clouds
9:53 AM 80.1 °F 83.8 °F 72.0 °F 76% 29.85 in 8.0 mi SSW 10.4 mph - N/A   Clear
10:53 AM - - - N/A% 29.86 in - North - - N/A   Unknown
11:53 AM 84.0 °F 90.2 °F 73.0 °F 69% 29.85 in - SW 9.2 mph - N/A   Unknown
12:53 PM 84.9 °F 91.4 °F 73.0 °F 67% 29.85 in 9.0 mi WSW 12.7 mph - N/A   Mostly Cloudy
1:53 PM 84.9 °F 91.4 °F 73.0 °F 67% 29.81 in 10.0 mi South 8.1 mph - N/A   Clear
2:53 PM 84.0 °F 91.2 °F 73.9 °F 72% 29.81 in 9.0 mi SSW 10.4 mph - N/A   Clear
3:53 PM 84.9 °F 93.3 °F 75.0 °F 72% 29.78 in 8.0 mi SSW 10.4 mph - N/A   Clear
4:53 PM 84.9 °F 93.3 °F 75.0 °F 72% 29.79 in 8.0 mi SW 11.5 mph - N/A   Clear
5:53 PM 84.0 °F 92.6 °F 75.9 °F 76% 29.78 in 8.0 mi SW 6.9 mph - N/A   Clear
6:53 PM 82.9 °F 90.8 °F 75.9 °F 79% 29.78 in 8.0 mi SSW 5.8 mph - N/A   Clear
7:53 PM 78.1 °F - 75.0 °F 90% 29.79 in 6.0 mi SW 4.6 mph - N/A   Clear
8:53 PM 75.9 °F - 73.9 °F 94% 29.80 in 5.0 mi SSW 4.6 mph - N/A   Clear
9:53 PM 75.0 °F - 73.9 °F 96% 29.82 in 4.0 mi South 5.8 mph - N/A   Clear
10:53 PM 75.0 °F - 73.9 °F 96% 29.83 in 3.0 mi SW 4.6 mph - N/A   Clear
11:53 PM 75.9 °F - 75.0 °F 97% 29.83 in 5.0 mi WSW 6.9 mph - N/A   Partly Cloudy